{"data":{"norad_id":53553,"intl_designator":"2022-101AC","name":"STARLINK-4501","alt_names":[],"object_type":"PAYLOAD","status":"ACTIVE","operator":null,"country":"US","launch_date":"2022-08-19","launch_site_code":"AFETR","launch_vehicle":null,"mission":null,"orbit_class":"UNKNOWN","rcs_meters":null,"size_class":null,"mass_kg":null,"dimensions":null,"purposes":["comms"],"wikipedia_slug":null,"has_3d_model":false,"image_url":null,"decayed_at":null,"tle_current":{"epoch":"2026-09-20T12:53:43.001664Z","epoch_age_seconds":75063,"freshness":"FRESH","line1":"1 53553U 22101AC  26263.53730326 -.00000049  00000+0  14990-4 0  9995","line2":"2 53553  53.1602 268.6296 0001213  78.1721 281.9407 15.08832856226380","mean_motion":15.08832856,"eccentricity":0.0001213,"inclination_deg":53.1602,"raan_deg":268.6296,"arg_perigee_deg":78.1721,"mean_anomaly_deg":281.9407,"bstar":1.499e-5,"rev_number":22638,"period_min":95.43800655412,"perigee_km":538.92608386032,"apogee_km":540.6043669402,"semimajor_km":6917.9022254003,"source":"CELESTRAK","updated_at":"2026-09-21T09:00:32.925246Z"}}}